Location: Klickitat County Star Party
(45.8642°N, 120.6771°W)
Time: 04:12:26
(UTC-07:00)

ISS - Visible Passes

Search period start: 20 March 2019 00:00
Search period end: 30 March 2019 00:00
Orbit: 406 x 411 km, 51.6° (Epoch: 20 March)

Date Brightness Start Highest point End Pass type
(mag) Time Alt. Az. Time Alt. Az. Time Alt. Az.
20 Mar -1.7 20:59:46 10° SSW 21:00:50 17° SSW 21:00:50 17° SSW visible
21 Mar -2.2 20:09:30 10° S 20:11:52 18° SE 20:12:53 16° ESE visible
21 Mar -1.2 21:44:49 10° WSW 21:45:41 17° WSW 21:45:41 17° WSW visible
22 Mar -3.9 20:53:49 10° SW 20:57:05 68° SSE 20:57:29 59° E visible
23 Mar -3.3 20:03:00 10° SW 20:06:07 40° SE 20:09:05 11° ENE visible
23 Mar -2.2 21:39:31 10° W 21:41:51 35° WNW 21:41:51 35° WNW visible
24 Mar -3.4 20:48:17 10° WSW 20:51:34 61° NNW 20:53:15 25° NE visible
24 Mar -0.4 22:25:36 10° WNW 22:26:01 13° WNW 22:26:01 13° WNW visible
25 Mar -3.8 19:57:11 10° WSW 20:00:29 87° SSE 20:03:47 10° ENE visible
25 Mar -2.2 21:34:18 10° WNW 21:37:16 32° NNW 21:37:16 32° NNW visible
26 Mar -2.6 20:42:59 10° W 20:46:06 38° NNW 20:48:25 16° NE visible
26 Mar -0.7 22:20:15 10° WNW 22:21:10 16° NW 22:21:10 16° NW visible
27 Mar -3.0 19:51:41 10° W 19:54:55 51° NNW 19:58:09 10° ENE visible
27 Mar -2.2 21:29:01 10° WNW 21:31:57 28° N 21:32:13 28° N visible
28 Mar -2.2 20:37:42 10° WNW 20:40:41 30° N 20:43:12 13° NE visible
28 Mar -1.0 22:14:42 10° NW 22:15:56 19° NW 22:15:56 19° NW visible
29 Mar -2.4 21:23:33 10° WNW 21:26:32 30° N 21:26:53 30° NNE visible
